EA1HTW-1 Weather Reports


time (UTC)temp
C
wind
direction
speed
KPH
gust
KPH
rain 1hr
cm
rain 24hr
cm
rain mn
cm
humidity
%
barometer
mb
20260507014929 6 0 0.0 0.0 0.00 0.00 0.00 95 983.5
20260507013929 6 356 0.0 0.0 0.00 0.00 0.00 95 983.7
20260507012930 6 34 0.0 3.2 0.00 0.00 0.00 95 983.6
20260507010928 6 0 1.6 3.2 0.00 0.00 0.00 95 983.9
20260507004928 6 0 0.0 0.0 0.00 0.00 0.00 94 984.2
20260507003929 6 68 0.0 0.0 0.00 0.00 0.00 94 984.2
20260507002930 6 68 0.0 0.0 0.00 0.00 0.00 94 984.3
20260507001932 6 150 0.0 0.0 0.00 0.00 0.00 94 984.2
20260507000930 7 14 0.0 0.0 0.00 0.00 0.00 94 984.4
20260506234929 7 338 0.0 1.6 0.00 0.00 0.00 93 984.7
20260506233931 7 333 0.0 0.0 0.00 0.00 0.00 93 984.6
20260506231930 7 341 0.0 0.0 0.00 0.00 0.00 92 984.6
20260506230930 7 62 0.0 3.2 0.00 0.00 0.00 92 984.7
20260506225929 7 338 0.0 0.0 0.00 0.00 0.00 91 984.8
20260506224930 8 338 0.0 0.0 0.00 0.00 0.00 91 984.8
20260506223930 8 338 0.0 0.0 0.00 0.00 0.00 90 984.9
20260506222929 8 338 0.0 0.0 0.00 0.00 0.00 90 985.0
20260506221930 9 0 0.0 0.0 0.00 0.00 0.00 89 985.0
20260506220928 9 90 0.0 0.0 0.00 0.00 0.00 89 985.1
20260506214929 9 126 0.0 1.6 0.00 0.00 0.00 88 985.3
20260506213931 10 158 0.0 1.6 0.00 0.00 0.00 87 985.2
20260506212930 10 126 0.0 0.0 0.00 0.00 0.00 86 985.4
20260506211927 10 135 1.6 3.2 0.00 0.00 0.00 86 985.3
20260506210930 10 121 0.0 0.0 0.00 0.00 0.00 85 985.2
20260506205928 10 130 1.6 3.2 0.00 0.00 0.00 84 985.4
20260506204929 10 103 1.6 1.6 0.00 0.00 0.00 83 985.2
20260506203930 10 135 0.0 0.0 0.00 0.00 0.00 83 985.3
20260506202930 10 112 0.0 1.6 0.00 0.00 0.00 82 985.4
20260506201929 11 154 1.6 1.6 0.00 0.00 0.00 81 985.2
20260506200930 11 124 0.0 3.2 0.00 0.00 0.00 80 985.2
20260506195929 11 158 0.0 0.0 0.00 0.00 0.00 79 985.2
20260506194929 11 148 0.0 0.0 0.00 0.00 0.00 78 985.0
20260506193930 12 131 1.6 1.6 0.00 0.00 0.00 76 984.8
20260506191930 12 161 1.6 3.2 0.00 0.00 0.00 74 984.8
20260506190930 12 213 1.6 4.8 0.00 0.00 0.00 72 984.7
20260506184929 13 235 1.6 1.6 0.00 0.00 0.00 73 984.6
20260506183929 13 291 0.0 1.6 0.00 0.00 0.00 74 984.7
20260506181929 13 114 1.6 4.8 0.00 0.00 0.00 73 984.4
20260506180929 13 150 1.6 4.8 0.00 0.00 0.00 71 984.4
20260506173928 14 137 4.8 20.9 0.00 0.00 0.00 70 984.7
20260506171928 15 180 1.6 1.6 0.00 0.00 0.00 69 984.7
20260506170931 15 225 1.6 3.2 0.00 0.00 0.00 69 984.9
20260506164930 15 202 0.0 1.6 0.00 0.00 0.00 71 985.1
20260506163930 15 113 0.0 1.6 0.00 0.00 0.00 69 985.0
20260506162929 14 202 3.2 4.8 0.00 0.00 0.00 70 985.0
20260506161928 15 217 1.6 8.0 0.00 0.00 0.00 69 985.0
20260506160930 15 159 1.6 8.0 0.00 0.00 0.00 68 985.1
20260506155927 16 148 4.8 11.3 0.00 0.00 0.00 67 985.2
20260506153928 16 212 1.6 8.0 0.00 0.00 0.00 67 985.1
20260506153211 16 202 4.8 11.3 0.00 0.00 0.00 63 985.4
20260506152930 16 202 4.8 11.3 0.00 0.00 0.00 63 985.4
20260506151927 16 264 3.2 8.0 0.00 0.00 0.00 65 985.4
20260506150928 15 106 4.8 11.3 0.00 0.00 0.00 66 985.5
20260506145930 14 217 4.8 12.9 0.00 0.00 0.00 69 985.7
20260506144930 13 186 3.2 8.0 0.00 0.03 0.00 72 985.7
20260506143928 13 191 1.6 9.7 0.00 0.03 0.00 73 985.9
20260506140928 16 108 3.2 9.7 0.00 0.03 0.00 67 985.8
20260506135928 15 180 3.2 12.9 0.00 0.03 0.00 67 986.0
20260506134929 15 122 8.0 11.3 0.00 0.03 0.00 69 986.1
20260506133928 15 205 4.8 11.3 0.00 0.03 0.00 70 986.1
20260506130929 15 180 3.2 9.7 0.00 0.18 0.00 69 986.0
20260506125928 15 150 8.0 14.5 0.00 0.18 0.00 70 986.1
20260506124928 15 119 8.0 19.3 0.00 0.18 0.00 72 986.3
20260506123928 17 98 8.0 14.5 0.00 0.33 0.00 67 986.2
20260506122929 17 172 1.6 8.0 0.00 0.36 0.00 60 986.5
20260506121928 17 5 3.2 11.3 0.00 0.36 0.00 58 986.4
20260506120928 16 172 4.8 11.3 0.00 0.36 0.00 60 986.6
20260506115929 15 87 4.8 9.7 0.00 0.36 0.00 68 986.7
20260506114928 15 92 1.6 8.0 0.00 0.36 0.00 69 987.0
20260506110928 15 161 4.8 11.3 0.00 0.43 0.00 71 987.6
20260506105928 15 181 1.6 4.8 0.00 0.43 0.00 70 987.4
20260506104929 14 232 1.6 3.2 0.00 0.43 0.00 74 987.6
20260506103928 13 350 0.0 1.6 0.00 0.43 0.00 73 987.7
20260506102926 13 109 1.6 4.8 0.00 0.43 0.00 79 987.8
20260506101929 12 135 1.6 3.2 0.00 0.43 0.00 82 987.8
20260506100928 13 98 1.6 3.2 0.00 0.43 0.00 83 987.7
20260506095927 12 148 1.6 4.8 0.00 0.43 0.00 85 987.8
20260506092926 11 183 1.6 8.0 0.00 0.43 0.00 90 988.0
20260506090928 11 135 1.6 4.8 0.00 0.46 0.00 94 987.8
20260506085927 10 131 1.6 3.2 0.00 0.46 0.00 95 987.9
20260506084927 10 90 1.6 3.2 0.00 0.46 0.00 96 988.0
20260506083926 10 140 1.6 4.8 0.00 0.46 0.00 96 987.9
20260506082927 10 107 0.0 1.6 0.00 0.46 0.00 97 987.8
20260506081927 9 292 0.0 0.0 0.00 0.46 0.00 97 987.8
20260506080928 9 292 0.0 0.0 0.00 0.46 0.00 97 987.8
20260506072929 7 225 0.0 1.6 0.00 0.46 0.00 97 987.7
20260506070926 7 22 0.0 0.0 0.00 0.46 0.00 97 987.9
20260506060926 6 54 0.0 0.0 0.00 0.46 0.00 97 987.5
20260506050927 6 0 1.6 3.2 0.00 0.46 0.00 97 986.9
20260506044926 6 90 0.0 0.0 0.00 0.46 0.00 97 987.0
20260506041927 6 47 1.6 1.6 0.00 0.46 0.00 96 987.5
20260506040928 6 22 0.0 0.0 0.00 0.46 0.00 96 987.5
20260506035927 6 22 0.0 0.0 0.00 0.46 0.00 96 987.4
20260506033926 7 0 0.0 1.6 0.00 0.46 0.00 96 987.4
20260506030927 7 22 0.0 0.0 0.00 0.46 0.00 96 987.6
20260506025927 7 22 0.0 0.0 0.00 0.46 0.00 96 987.8
20260506024928 7 45 0.0 0.0 0.00 0.48 0.00 96 987.6
20260506023926 7 22 0.0 0.0 0.00 0.48 0.00 96 987.7
20260506022927 7 0 0.0 0.0 0.00 0.48 0.00 96 987.6
20260506021927 7 0 0.0 0.0 0.00 0.48 0.00 96 987.7
20260506020928 7 0 0.0 0.0 0.00 0.48 0.00 96 987.7
20260506015926 8 0 0.0 0.0 0.00 0.48 0.00 96 988.0